Date,TemperatureHighF,TemperatureAvgF,TemperatureLowF,DewpointHighF,DewpointAvgF,DewpointLowF,HumidityHigh,HumidityAvg,HumidityLow,PressureMaxIn,PressureMinIn,WindSpeedMaxMPH,WindSpeedAvgMPH,GustSpeedMaxMPH,PrecipitationSumIn
2012-1-1,43,35,30,37,27,22,87,75,61,30.11,29.64,30,12,30,3.13
2012-1-2,31,26,23,24,20,15,84,77,67,30.36,30.04,31,10,31,1.09
2012-1-3,29,23,19,17,14,8,78,66,55,30.48,30.18,23,6,23,0.02
2012-1-4,42,34,22,30,24,12,74,67,59,30.18,30.00,17,5,17,0.00
2012-1-5,52,40,30,34,29,24,83,66,51,30.09,29.81,20,5,20,0.00
2012-1-6,62,48,43,41,36,32,75,63,43,29.84,29.79,11,2,13,0.04
2012-1-7,49,39,28,36,29,22,82,69,52,30.31,29.82,20,4,20,0.00
2012-1-8,43,33,24,30,25,20,85,74,56,30.48,30.30,10,1,10,0.00
2012-1-9,47,36,26,33,28,22,86,74,51,30.36,30.05,21,6,21,0.00
2012-1-10,60,42,28,38,32,25,86,69,43,30.16,29.90,13,2,13,0.00
2012-1-11,54,40,30,39,31,25,83,70,52,29.90,29.57,8,1,8,0.00
2012-1-12,39,31,21,37,27,18,90,85,69,29.57,29.41,20,4,20,0.04
2012-1-13,31,26,24,29,22,18,92,85,76,30.09,29.43,22,8,22,0.12
2012-1-14,28,20,11,18,13,5,83,75,60,30.31,30.07,16,4,16,0.00
2012-1-15,30,21,10,13,10,5,81,63,47,30.48,30.28,15,5,15,0.00
2012-1-16,44,42,42,38,36,35,84,80,72,29.91,29.87,15,3,15,0.00
2012-1-17,39,32,26,37,28,19,92,86,76,30.22,29.61,25,8,25,0.00
2012-1-18,28,23,20,19,15,12,76,69,56,30.37,30.18,16,5,16,0.00
2012-1-19,28,17,14,22,10,7,79,72,68,30.23,29.85,20,6,20,0.02
2012-1-20,17,15,13,12,9,7,83,77,66,30.31,30.13,10,2,10,0.00
2012-1-21,43,23,14,20,11,6,82,63,36,30.37,30.12,7,1,7,0.00
2012-1-22,42,27,15,40,24,7,94,86,72,30.23,29.67,23,8,23,0.05
2012-1-23,47,43,35,44,41,32,95,91,86,29.68,29.45,22,9,22,0.22
2012-1-24,33,31,29,26,25,23,83,78,74,30.44,30.29,13,2,13,0.00
2012-1-25,34,30,26,27,25,22,88,82,74,30.45,30.17,10,1,10,0.00
2012-1-26,36,33,30,33,30,26,90,88,85,30.17,29.68,9,1,9,0.18
2012-1-27,46,38,34,34,29,22,91,72,52,30.08,29.67,17,5,17,0.02
2012-1-28,36,33,32,31,24,17,91,71,50,30.21,29.82,106,8,106,0.55
2012-1-29,34,30,27,27,22,16,86,70,61,30.34,29.99,21,7,21,0.00
2012-1-30,55,36,21,38,26,14,78,66,49,30.34,29.95,19,6,19,0.00
2012-1-31,56,51,45,48,41,36,83,70,57,29.99,29.91,22,11,22,0.16
2012-2-1,52,40,36,47,35,30,87,81,75,30.26,29.94,12,2,12,0.00
2012-2-2,51,39,34,38,32,28,87,77,60,30.49,30.23,11,1,11,0.00
2012-2-3,43,38,36,34,33,30,86,81,70,30.58,30.48,9,1,9,0.00
2012-2-4,57,44,35,39,33,29,77,66,48,30.40,30.30,10,3,10,0.00
2012-2-5,54,44,31,38,32,24,87,62,47,30.40,30.34,9,2,9,0.00
2012-2-7,37,36,36,29,29,29,76,75,74,30.44,30.40,5,1,6,0.00
2012-2-8,33,31,30,21,19,18,67,61,56,30.40,30.36,13,3,13,0.00
2012-2-9,38,31,28,23,20,18,74,64,53,30.36,30.16,18,6,20,0.00
2012-2-10,33,29,19,26,22,13,83,76,65,30.16,30.00,20,6,20,0.12
2012-2-11,26,18,15,18,11,8,83,75,67,30.44,30.15,22,5,22,0.02
2012-2-12,40,29,21,21,17,13,74,61,43,30.40,30.26,21,7,21,0.00
2012-2-13,33,30,28,23,16,12,82,57,44,30.29,29.98,16,4,16,0.00
2012-2-14,34,30,27,29,26,23,87,84,80,30.11,29.86,12,4,12,0.00
2012-2-15,42,37,33,35,31,28,91,81,70,30.23,30.06,17,4,17,0.11
2012-2-16,49,40,33,39,35,27,93,83,64,30.20,29.99,14,3,14,0.08
2012-2-17,48,40,33,34,29,26,79,66,45,30.27,30.06,20,4,20,0.00
2012-2-18,44,36,27,32,25,18,77,64,45,30.35,30.07,22,4,22,0.06
2012-2-19,47,32,22,27,20,15,78,62,43,30.32,30.22,13,1,13,0.00
2012-2-20,45,39,34,25,23,22,68,54,41,30.42,30.03,18,6,18,0.00
2012-2-21,41,38,35,37,31,24,90,76,61,30.04,29.74,19,7,19,0.04
2012-2-22,40,37,33,34,31,27,88,80,69,29.77,29.53,15,4,15,0.00
2012-2-23,38,35,34,33,32,31,92,88,84,29.72,29.56,12,2,14,0.06
2012-2-24,38,33,30,32,29,25,91,86,77,29.96,29.39,23,5,23,0.02
2012-2-25,33,28,22,25,20,15,83,73,64,30.41,29.94,21,5,21,0.00
2012-2-26,47,39,21,29,25,16,81,58,49,30.36,30.10,18,7,22,0.00
2012-2-27,44,36,32,31,24,21,71,63,52,30.56,30.11,22,5,22,0.00
2012-2-28,43,32,25,28,23,20,84,72,54,30.55,30.36,14,3,14,0.00
2012-2-29,64,51,35,52,36,30,88,59,32,29.69,29.51,22,10,22,0.04
2012-3-1,40,37,35,33,32,30,86,79,75,29.97,29.67,23,5,23,0.00
2012-3-2,45,39,34,41,34,30,90,85,76,29.70,29.28,29,5,29,0.69
2012-3-3,36,32,30,31,25,22,87,73,65,29.90,29.60,24,9,24,0.31
2012-3-4,33,31,28,26,25,24,87,79,72,30.01,29.83,13,4,13,0.00
2012-3-5,47,31,22,27,20,14,85,67,40,30.48,30.01,12,2,12,0.04
2012-3-6,66,48,30,41,31,22,73,54,36,30.39,30.03,32,11,32,2.26
2012-3-7,67,60,53,49,39,30,60,48,36,30.13,29.92,33,16,33,3.06
2012-3-8,64,48,39,52,42,33,88,78,60,30.18,29.86,31,8,31,0.31
2012-3-10,57,49,34,30,25,18,50,40,30,30.53,30.32,22,11,22,0.13
2012-3-11,69,54,36,38,30,24,63,43,26,30.41,30.21,14,4,14,0.00
2012-3-12,69,57,51,56,49,38,91,74,47,30.21,29.83,24,7,24,0.06
2012-3-13,72,56,47,48,42,30,84,64,30,30.22,29.97,13,3,13,0.00
2012-3-14,82,64,46,60,47,29,79,56,35,30.18,30.05,21,5,21,0.04
2012-3-15,80,70,61,63,60,54,84,70,56,30.14,30.06,19,5,19,0.00
2012-3-16,89,63,47,62,53,42,86,72,42,30.19,30.11,12,1,12,0.00
2012-3-17,80,73,66,57,55,54,66,54,42,30.16,30.13,18,4,18,0.00
2012-3-18,79,66,61,62,57,54,83,72,51,30.21,30.13,10,2,10,0.00
2012-3-19,84,71,59,65,59,53,84,67,52,30.16,30.07,12,1,12,0.00
2012-3-20,85,75,66,59,56,54,65,53,35,30.20,30.08,23,4,23,0.00
2012-3-21,95,76,64,60,56,53,69,54,32,30.25,30.16,18,2,18,0.00
2012-3-22,89,72,61,61,56,51,77,59,36,30.24,30.13,15,1,15,0.02
2012-3-23,67,63,54,62,58,49,90,85,69,30.18,29.93,14,1,14,0.23
2012-4-1,61,52,45,48,42,38,81,71,63,29.89,29.75,13,1,13,0.00
2012-4-2,65,51,44,43,39,35,84,65,36,30.09,29.87,17,4,17,0.00
2012-4-3,80,70,60,54,48,43,55,45,39,30.02,29.93,15,5,15,0.00
2012-4-4,66,56,45,41,37,32,64,49,39,30.09,30.00,17,4,18,0.00
2012-4-5,59,47,39,37,32,28,66,56,43,30.17,30.01,21,2,21,0.00
2012-4-6,64,62,60,36,34,32,39,35,33,30.39,30.34,14,4,14,0.00
2012-4-8,66,56,47,40,35,30,74,47,26,30.35,30.23,17,5,17,0.00
2012-4-11,56,50,35,38,34,27,72,54,47,30.40,30.35,14,4,16,0.00
2012-4-12,35,31,28,29,25,24,85,79,72,30.39,30.31,2,0,2,0.00
2012-4-14,65,64,62,55,54,52,75,70,68,30.06,29.99,14,7,14,0.00
2012-4-15,76,73,66,62,61,59,81,67,63,29.87,29.79,22,10,22,0.04
2012-4-16,66,56,47,61,48,39,88,74,62,30.29,29.64,28,10,28,0.73
2012-4-17,63,51,38,41,37,33,84,61,43,30.49,30.29,13,2,13,0.00
2012-4-18,70,65,57,48,44,38,68,46,39,30.30,30.06,20,6,20,0.04
2012-4-19,59,52,49,48,44,42,84,74,64,30.08,29.83,8,1,8,0.00
2012-4-20,62,49,41,49,42,37,88,78,57,30.07,29.73,19,4,19,0.09
2012-4-21,60,47,36,37,33,29,86,62,40,30.15,30.04,15,2,15,0.00
2012-4-22,59,47,36,36,31,24,69,55,35,30.16,30.06,17,2,17,0.00
2012-4-23,58,48,37,39,32,26,69,56,38,30.15,29.87,22,4,22,0.00
2012-4-24,67,52,43,38,31,26,61,47,26,29.89,29.79,15,2,15,0.00
2012-4-25,53,48,41,48,38,26,86,68,41,29.90,29.76,8,1,10,0.18
2012-4-26,56,50,41,46,40,26,85,68,48,30.25,29.70,24,5,24,0.75
2012-4-27,62,50,32,32,28,21,65,44,30,30.39,30.21,14,2,14,0.00
2012-4-28,50,46,42,42,37,29,77,71,52,30.33,30.24,7,1,8,0.17
2012-4-29,68,53,37,41,34,30,82,53,27,30.39,30.21,14,2,14,0.04
2012-4-30,62,50,44,55,42,36,82,75,64,30.21,30.02,14,4,14,0.02
2012-5-1,66,62,54,57,55,51,91,76,64,30.16,29.96,10,3,10,0.23
2012-5-2,83,70,59,66,60,56,94,74,48,30.07,29.90,23,4,23,0.04
2012-5-3,87,76,63,69,64,57,87,69,50,30.09,29.98,20,5,20,0.49
2012-5-4,74,64,50,65,55,45,86,74,54,30.11,29.96,18,2,18,0.00
2012-5-5,84,66,51,65,57,46,90,74,51,30.16,30.04,5,1,7,0.00
2012-5-6,77,67,57,58,53,45,87,63,43,30.16,29.95,13,2,16,0.00
2012-5-7,64,53,49,54,46,37,90,78,40,30.02,29.86,11,1,11,0.77
2012-5-8,80,60,46,53,48,43,93,68,35,30.01,29.92,13,1,13,0.00
2012-5-9,65,56,46,48,44,37,81,65,48,30.05,29.93,13,2,16,0.00
2012-5-10,72,56,41,42,38,36,84,56,30,30.16,30.01,9,1,9,0.00
2012-5-11,82,60,39,46,39,34,83,53,24,30.26,30.15,14,2,14,0.00
2012-5-12,63,56,54,49,48,47,79,74,59,30.35,30.30,8,1,8,0.09
2012-5-13,82,72,54,55,48,39,74,44,27,30.34,30.22,13,2,13,0.00
2012-5-14,87,80,72,44,42,40,34,27,22,30.21,30.16,9,1,9,0.00
2012-5-15,78,77,76,48,47,46,37,36,33,30.06,30.04,16,6,16,0.00
2012-5-16,73,61,52,46,40,36,56,48,37,30.22,30.13,13,2,13,0.00
2012-5-17,83,70,45,48,44,35,68,41,27,30.30,30.17,6,1,6,0.00
2012-5-18,78,59,51,46,40,36,58,50,31,30.23,30.18,8,1,8,0.00
2012-5-19,102,85,60,64,58,44,55,41,28,30.20,30.12,8,1,8,0.00
2012-5-20,95,83,66,64,59,56,76,46,29,30.22,30.06,16,3,16,0.28
2012-5-21,70,62,56,60,51,44,86,68,50,30.27,30.12,18,2,18,0.13
2012-5-22,77,62,50,53,46,40,73,57,39,30.19,30.05,9,1,9,0.00
2012-5-23,92,67,46,57,48,40,84,56,28,30.05,29.90,13,1,13,0.00
2012-5-24,91,82,64,61,53,48,78,39,26,29.95,29.76,17,4,17,0.00
2012-5-25,88,76,65,61,56,49,73,51,33,30.26,29.85,12,2,12,0.00
2012-5-26,90,72,62,66,56,48,72,59,43,30.37,30.17,9,1,9,0.00
2012-5-27,105,84,69,71,62,54,65,51,32,30.20,30.00,12,1,12,0.00
2012-5-28,93,83,71,67,61,57,68,49,35,30.01,29.85,18,4,18,0.00
2012-5-29,84,71,65,62,58,55,73,64,46,30.00,29.86,14,1,14,0.00
2012-6-1,57,51,48,51,46,43,89,83,72,29.90,29.82,12,2,12,0.00
2012-6-2,76,61,48,54,48,44,89,65,34,29.88,29.79,20,4,20,0.06
2012-6-3,77,63,59,55,54,53,84,74,45,29.95,29.87,14,5,14,0.00
2012-6-4,80,69,58,56,52,48,72,56,40,30.03,29.91,11,1,11,0.00
2012-6-5,79,61,53,56,50,47,79,68,42,30.13,30.02,22,0,22,0.00
2012-6-6,81,75,59,58,54,48,68,48,42,30.21,30.18,5,1,5,0.00
2012-6-7,83,63,50,56,49,45,84,64,31,30.26,30.17,5,0,5,0.00
2012-6-8,91,69,50,56,49,44,80,53,24,30.19,30.06,12,2,12,0.00
2012-6-9,93,82,73,57,55,53,50,40,28,30.09,30.00,15,3,15,0.00
2012-6-10,96,77,67,63,57,52,64,51,30,30.14,30.05,13,1,13,0.00
2012-6-13,85,73,59,53,48,44,61,43,29,30.33,30.22,12,1,12,0.00
2012-6-14,92,72,54,52,47,43,74,46,22,30.29,30.17,11,1,11,0.00
2012-6-15,97,84,66,57,53,44,55,36,25,30.22,30.18,8,1,8,0.00
2012-6-16,94,80,67,68,60,51,66,53,36,30.21,30.03,20,2,20,0.12
2012-6-17,94,76,66,69,63,58,90,68,34,30.09,29.95,22,2,22,0.17
2012-6-18,92,75,66,72,64,60,80,70,48,30.01,29.89,35,1,35,0.22
2012-6-19,97,85,77,73,67,63,65,55,44,30.17,30.01,9,0,22,0.00
2012-6-20,93,84,73,69,64,62,70,53,40,30.22,30.10,11,0,11,0.00
2012-6-21,82,76,67,67,63,61,82,64,56,30.13,30.04,21,0,21,0.00
2012-6-22,88,76,64,63,60,53,84,60,33,30.15,30.05,5,0,5,0.02
2012-6-23,91,75,60,62,56,51,76,54,36,30.16,30.12,3,0,3,0.00
2012-6-24,97,80,69,63,60,56,70,53,31,30.16,30.06,4,0,4,0.00
2012-6-25,86,73,61,62,55,48,72,55,38,30.20,30.09,20,0,20,0.00
2012-6-26,90,72,54,56,52,46,77,52,30,30.21,30.08,16,0,16,0.00
2012-6-27,93,76,57,57,53,49,78,49,28,30.10,29.93,6,0,6,0.00
2012-6-28,86,77,73,67,58,55,60,53,45,29.97,29.90,6,0,6,0.00
2012-6-29,80,80,80,66,66,66,63,63,63,29.93,29.93,0,0,0,0.00
2012-6-30,92,86,76,70,68,66,72,55,46,30.01,29.97,10,0,10,0.00
2012-7-1,93,79,69,75,68,63,89,70,44,30.18,29.99,5,0,5,0.00
2012-7-2,99,83,65,75,69,61,88,65,42,30.13,30.05,4,0,4,0.00
2012-7-3,99,87,78,74,69,62,75,57,39,30.10,30.00,5,0,5,0.31
2012-7-4,103,89,80,74,72,69,74,60,35,30.09,30.02,6,0,6,0.00
2012-7-6,104,98,86,79,76,74,66,51,40,30.18,30.15,0,0,0,0.00
2012-7-7,101,88,0,77,72,-7,72,60,41,30.21,30.14,1,0,1,0.00
2012-7-8,93,84,74,68,64,60,68,52,42,30.23,30.16,10,2,10,0.55
2012-7-9,95,78,64,67,62,57,80,59,21,30.19,30.15,9,1,9,0.00
2012-7-10,93,77,65,65,61,55,75,59,36,30.23,30.17,11,1,11,0.00
2012-7-11,95,74,0,66,55,-24,71,54,31,30.28,30.22,3,0,3,0.00
2012-7-12,88,70,65,57,53,51,62,55,31,30.26,30.21,57,3,57,0.00
2012-7-13,93,86,77,70,67,62,72,54,41,30.24,30.17,22,1,22,0.00
2012-7-14,100,77,0,71,65,0,87,70,36,30.22,30.15,22,1,22,0.30
2012-7-15,96,77,69,73,69,66,90,77,46,30.20,30.13,13,2,13,0.00
2012-7-16,102,92,80,72,70,67,76,50,36,30.16,30.01,97,4,97,0.00
2012-7-17,104,90,81,74,70,68,70,54,35,30.07,30.00,16,3,16,0.00
2012-7-18,98,84,78,77,72,69,82,69,50,30.16,30.03,8,0,8,0.00
2012-7-19,88,80,74,74,71,66,87,73,62,30.08,30.04,14,1,14,0.00
2012-7-20,92,79,69,68,64,60,80,63,40,30.21,30.07,13,1,13,0.00
2012-7-21,87,74,62,66,62,57,86,67,43,30.24,30.15,9,1,9,0.00
2012-7-22,84,75,71,68,65,64,79,72,56,30.25,30.16,13,1,13,0.00
2012-7-23,100,92,85,73,70,68,66,50,38,30.09,30.04,13,4,13,0.00
2012-7-24,89,80,71,74,70,64,88,73,53,30.20,30.05,9,1,9,0.08
2012-7-25,92,74,66,76,65,61,85,74,58,30.09,29.87,11,2,11,0.16
2012-7-26,81,79,77,72,71,70,85,78,74,29.87,29.82,12,4,12,0.00
2012-7-27,89,78,72,73,69,66,88,73,57,30.07,29.94,10,2,10,0.14
2012-7-28,92,77,65,67,62,58,84,63,38,30.25,30.06,11,1,11,0.00
2012-7-29,97,76,58,66,61,53,89,63,34,30.22,30.12,6,0,6,0.00
2012-7-30,98,81,67,70,65,60,81,60,40,30.13,30.04,17,0,17,0.00
2012-7-31,92,82,66,73,68,61,87,64,51,30.08,30.01,12,2,12,0.00
2012-8-1,95,78,63,66,62,58,86,61,33,30.08,29.99,7,0,7,0.00
2012-8-2,93,78,67,68,64,59,80,62,41,30.04,29.97,12,1,12,0.00
2012-8-3,99,83,69,72,67,64,85,62,35,30.06,29.97,10,0,10,0.00
2012-8-4,95,82,71,76,71,66,90,70,53,30.07,29.93,19,1,19,0.47
2012-8-5,90,78,73,70,68,64,90,75,43,30.22,30.01,14,2,14,0.00
2012-8-6,92,81,69,62,59,56,67,48,32,30.27,30.12,9,1,9,0.00
2012-8-7,95,77,61,67,61,55,80,61,36,30.13,30.03,15,1,15,0.00
2012-8-8,93,72,0,66,60,-17,70,66,44,30.12,30.04,4,0,4,0.00
2012-8-9,68,65,63,63,61,59,88,85,81,30.01,29.94,4,0,4,0.47
2012-8-10,67,63,61,60,58,56,88,85,69,29.98,29.90,13,1,13,0.04
2012-8-11,81,70,62,64,60,57,91,72,56,30.11,30.03,6,1,6,0.41
2012-8-12,71,60,54,64,55,50,91,84,72,30.15,30.09,5,0,5,0.00
2012-8-13,78,67,63,68,62,60,90,84,73,30.11,30.06,0,0,0,0.30
2012-8-14,69,62,60,65,60,57,92,90,86,30.07,30.02,2,0,2,0.00
2012-8-15,93,86,78,69,66,63,72,53,41,30.08,30.03,9,1,9,0.00
2012-8-16,71,70,69,66,64,60,86,81,71,30.01,29.90,16,4,16,0.00
2012-8-17,72,68,65,60,58,57,75,72,64,30.09,30.00,13,1,13,0.00
2012-8-18,83,75,61,55,52,49,71,47,33,30.15,30.05,6,1,6,0.00
2012-8-19,85,66,56,61,54,50,84,68,42,30.08,30.03,7,0,7,0.00
2012-8-20,85,73,57,62,59,52,87,62,45,30.12,30.06,10,1,10,0.00
2012-8-21,86,69,53,61,56,49,87,66,42,30.22,30.11,6,1,6,0.00
2012-8-22,88,66,52,61,54,47,87,68,37,30.25,30.17,6,0,6,0.00
2012-8-23,92,72,0,65,58,-17,76,63,38,30.25,30.17,5,1,5,0.00
2012-8-24,94,79,65,67,62,57,75,59,40,30.20,30.13,8,0,8,0.00
2012-8-25,102,81,65,69,63,58,79,58,30,30.21,30.15,7,0,7,0.00
2012-8-26,87,74,67,70,66,60,89,75,54,30.21,30.13,11,1,11,1.73
2012-8-27,90,76,68,74,68,61,91,78,55,30.20,30.09,8,0,8,0.48
2012-8-28,92,74,60,65,61,56,87,67,40,30.27,30.17,6,0,6,0.00
2012-8-29,91,74,59,66,60,54,87,66,41,30.23,30.14,5,0,5,0.00
2012-8-30,90,73,60,66,60,55,85,66,43,30.19,30.08,11,1,11,0.00
2012-8-31,91,78,65,74,66,56,75,67,57,30.20,30.11,16,3,16,0.00
2012-9-1,81,75,70,73,68,62,87,79,74,30.22,30.10,11,0,11,0.00
2012-9-2,89,78,70,74,69,65,87,77,60,30.12,30.01,10,1,10,0.00
2012-9-3,98,80,69,76,70,64,84,71,30,30.08,30.02,10,0,10,0.00
2012-9-4,93,78,70,74,69,65,90,75,50,30.04,29.98,7,0,7,0.18
2012-9-5,83,74,66,70,66,63,91,79,62,30.07,29.88,14,1,14,0.08
2012-9-6,90,76,68,73,68,62,92,76,48,30.06,29.94,11,1,11,0.00
2012-9-7,84,68,61,70,62,55,90,79,60,30.04,29.85,10,0,10,0.06
2012-9-8,75,66,59,57,54,51,86,68,46,29.98,29.87,10,1,10,0.00
2012-9-9,80,66,56,62,54,49,90,69,42,30.24,29.94,21,1,21,0.00
2012-9-10,83,64,49,57,50,44,86,63,40,30.33,30.23,8,0,8,0.00
2012-9-11,84,77,66,60,56,53,64,50,39,30.26,30.19,13,2,13,0.00
2012-9-12,89,71,57,64,56,51,82,61,36,30.30,30.22,15,2,15,0.00
2012-9-13,80,68,66,66,58,56,76,71,63,30.34,30.27,9,1,9,0.00
2012-9-14,80,68,57,74,60,52,82,76,63,30.42,30.34,6,0,6,0.00
2012-9-15,86,72,55,62,50,47,75,50,29,30.42,30.25,5,0,5,0.00
2012-9-16,82,64,49,59,51,44,86,66,39,30.26,30.09,10,0,10,0.00
2012-9-17,79,65,54,64,56,48,84,73,58,30.10,29.83,11,1,11,0.00
2012-9-18,66,60,57,59,53,45,84,76,47,29.97,29.80,17,3,17,0.00
2012-9-19,71,66,59,42,40,37,47,40,33,30.18,29.96,21,6,21,0.00
2012-9-20,74,64,58,51,46,40,73,53,35,30.02,29.94,20,3,20,0.00
2012-9-21,65,58,50,51,46,40,86,65,46,30.03,29.87,12,1,12,0.00
2012-9-22,59,54,47,50,46,42,90,76,62,30.21,29.85,18,3,18,0.00
2012-9-23,62,54,42,43,38,35,77,55,42,30.34,30.20,14,2,14,0.00
2012-9-24,68,50,40,40,37,34,80,63,34,30.32,30.06,20,3,20,0.00
2012-9-26,77,67,57,62,54,46,91,65,45,30.25,30.05,11,2,11,0.00
2012-9-27,76,57,47,57,48,42,84,72,52,30.30,30.23,4,0,4,0.00
2012-9-28,77,64,50,56,51,46,87,66,46,30.26,30.20,10,1,10,0.00
2012-9-29,76,58,43,57,49,39,90,73,49,30.22,30.06,9,1,9,0.00
2012-9-30,80,57,46,53,46,42,97,69,36,30.08,30.01,12,0,12,0.00
2012-10-1,65,51,45,50,44,40,98,78,57,30.05,29.94,4,0,4,0.00
2012-10-5,50,48,45,40,38,33,80,68,53,30.15,30.09,14,5,14,0.00
2012-10-6,49,47,45,35,33,32,63,60,57,30.18,30.07,17,3,17,0.00
2012-10-7,47,44,42,39,37,35,85,79,63,30.18,30.13,12,1,12,0.00
2012-10-15,46,42,39,38,36,34,83,78,72,30.05,30.02,0,0,0,0.00
2012-10-16,62,45,34,48,37,31,89,76,53,30.05,29.71,15,2,15,0.00
2012-10-17,72,62,58,55,52,48,86,68,49,29.71,29.47,21,8,23,0.00
2012-10-18,58,53,48,54,46,38,89,77,53,29.56,29.40,23,7,23,0.00
2012-10-19,52,49,45,45,43,42,89,79,76,29.69,29.56,9,2,9,0.00
2012-10-20,60,52,48,47,44,43,85,76,62,30.01,29.68,20,3,20,0.00
2012-10-21,68,52,38,50,43,35,90,73,50,30.18,30.00,15,2,15,0.00
2012-10-22,67,58,50,55,50,45,85,75,66,30.12,30.06,12,2,12,0.00
2012-10-23,64,62,60,60,58,57,91,89,87,30.06,29.99,5,0,5,0.00
2012-10-24,82,69,60,64,60,56,91,76,55,30.07,29.99,18,3,18,0.00
2012-10-25,79,70,62,62,59,55,79,68,55,30.02,29.84,24,9,24,0.00
2012-10-26,56,47,44,39,35,33,70,62,51,30.38,30.32,18,5,18,0.00
2012-10-27,55,44,36,38,34,29,76,67,52,30.37,30.30,13,2,13,0.00
2012-10-28,54,41,35,34,30,28,77,66,45,30.36,30.30,16,1,16,0.00
2012-10-29,50,46,39,33,32,29,73,57,48,30.30,30.03,29,9,29,8.03
2012-10-30,45,43,41,36,34,29,83,72,56,30.03,29.78,32,13,32,44.41
2012-10-31,45,42,39,37,36,35,89,81,69,29.90,29.74,36,9,36,0.82
2012-11-1,55,45,40,36,32,29,74,62,43,29.95,29.85,18,6,18,0.00
2012-11-2,50,43,40,36,33,29,74,67,57,30.21,29.92,50,4,50,0.00
2012-11-3,50,38,0,34,30,-11,81,70,53,30.32,30.21,13,1,13,0.00
2012-11-4,52,39,34,36,30,26,79,71,53,30.31,30.24,12,1,12,0.00
2012-11-5,59,36,27,36,27,0,83,70,41,30.31,30.19,9,1,9,0.00
2012-11-6,44,34,25,34,27,21,86,78,59,30.20,29.99,10,1,10,0.02
2012-11-7,51,39,32,38,32,27,84,78,58,30.24,29.99,7,0,7,0.02
2012-11-8,42,33,28,34,28,24,86,81,71,30.29,30.20,4,0,4,0.00
2012-11-9,55,40,0,45,34,-9,88,79,65,30.21,30.09,11,1,11,0.00
2012-11-10,66,59,53,54,47,43,72,64,57,30.12,29.92,22,6,22,0.16
2012-11-11,70,62,52,52,49,45,88,63,52,30.09,29.90,29,11,29,2.19
2012-11-12,52,40,35,49,34,23,90,77,60,30.25,29.98,22,6,22,0.10
2012-11-13,51,34,0,31,23,-10,77,63,46,30.59,30.48,8,2,8,0.00
2012-11-14,43,29,24,28,22,18,82,74,51,30.64,30.47,8,1,8,0.00
2012-11-15,57,36,24,38,27,20,85,72,48,30.49,30.41,8,1,8,0.00
2012-11-16,66,46,32,43,33,26,79,63,42,30.57,30.53,6,0,6,0.00
2012-11-17,70,39,0,43,29,-20,85,68,36,30.66,30.54,10,1,10,0.00
2012-11-18,62,46,34,35,31,27,78,58,34,30.55,30.44,12,2,12,0.00
2012-11-19,59,47,39,38,33,29,69,60,45,30.44,30.27,9,2,9,0.00
2012-11-20,53,48,41,45,42,38,88,78,71,30.26,30.17,4,0,4,0.00
2012-11-21,62,47,40,50,42,37,92,85,63,30.35,30.20,9,1,9,2.75
2012-11-22,61,53,43,48,44,40,90,74,54,30.21,29.85,23,8,23,0.08
2012-11-23,56,39,32,48,30,21,77,70,62,30.23,29.85,28,10,28,0.61
2012-11-24,32,30,27,23,21,18,71,69,67,30.31,30.16,17,5,17,0.00
2012-11-25,43,36,0,31,27,0,77,69,62,30.09,29.92,12,3,12,0.00
2012-11-26,40,36,0,28,25,-10,71,65,56,30.39,30.09,12,4,12,0.00
2012-11-27,44,33,28,28,21,14,69,61,52,30.48,30.31,8,2,8,0.00
2012-11-28,49,41,31,31,27,18,62,57,46,30.44,30.29,13,4,13,0.00
2012-11-29,55,46,38,33,31,26,63,56,43,30.34,30.21,15,4,15,0.00
2012-11-30,60,44,37,38,32,30,75,63,44,30.27,30.15,10,1,10,0.00
2012-12-1,60,48,0,50,40,-4,85,75,67,30.24,30.02,24,6,24,0.00
2012-12-2,62,58,54,54,51,48,86,78,64,30.09,29.96,23,7,23,0.03
2012-12-3,66,62,54,61,58,52,93,88,80,30.10,29.93,14,6,14,0.00
2012-12-4,50,48,48,43,42,39,84,79,67,30.21,30.11,6,1,6,0.00
2012-12-5,57,37,30,32,24,21,72,59,36,30.49,30.33,10,1,10,0.00
2012-12-6,39,32,30,29,24,22,75,73,68,30.34,30.18,14,4,14,0.00
2012-12-7,48,44,42,43,40,38,89,84,80,30.06,29.94,9,0,9,0.00
2012-12-8,42,39,34,38,33,28,98,81,74,30.22,29.91,8,0,8,0.06
2012-12-9,42,37,33,40,33,27,92,87,78,30.21,29.78,22,2,22,0.17
2012-12-10,42,36,35,38,32,29,88,83,77,29.92,29.77,19,5,19,0.06
2012-12-11,35,32,29,24,22,21,79,68,57,30.21,30.05,21,8,21,0.00
2012-12-12,50,34,25,31,25,20,83,70,45,30.41,30.20,14,4,14,0.00
2012-12-13,51,39,30,29,26,23,75,61,42,30.38,30.21,22,6,22,0.00
2012-12-14,54,40,28,34,29,22,79,65,45,30.32,30.17,11,2,11,0.00
2012-12-15,49,43,36,47,39,28,91,84,72,30.17,29.69,16,4,16,0.10
2012-12-16,50,46,41,47,41,35,91,85,79,29.81,29.66,17,6,17,0.00
2012-12-18,37,37,35,31,31,30,80,79,78,29.81,29.75,12,6,12,0.00
2012-12-19,39,39,39,35,35,35,86,86,86,30.15,30.14,6,2,6,0.00
2012-12-20,50,41,36,47,36,32,98,84,75,29.25,29.17,24,10,24,1.02
2012-12-21,38,34,32,34,29,25,90,80,72,30.15,29.24,32,14,33,3.18
2012-12-22,39,30,0,26,22,-7,83,74,53,30.27,30.05,20,5,20,0.00
2012-12-23,39,30,21,32,23,17,84,77,69,30.12,29.92,9,1,9,0.00
2012-12-24,41,30,26,30,23,21,81,76,64,30.12,29.90,8,1,8,0.00
2012-12-25,47,29,22,28,21,18,84,72,48,30.40,30.11,8,2,8,0.00
2012-12-26,30,28,26,24,21,17,80,74,68,30.30,30.02,24,4,24,0.00
2012-12-27,32,29,26,25,22,19,78,76,72,30.25,30.08,8,1,8,0.00
2012-12-28,32,30,28,28,25,24,88,83,77,30.22,30.11,6,1,6,0.00
2012-12-31,34,34,33,27,27,26,77,76,76,30.12,30.09,17,10,17,0.25
2013-1-1,36,25,22,23,16,13,74,67,57,30.26,30.20,12,4,12,0.00